Location: Lecco
(45.8566°N, 9.3977°E)
Time: 06:48:40
(UTC+02:00)

Altair - Pass Details

Date: 19 August 2020
Orbit: 1501 x 1682 km, 47.2° (Epoch: 25 September)

Event Time Altitude Azimuth Distance (km) Brightness Sun altitude
Rises 09:34:05 0° 289° (WNW) 4,687 9.5 31.1°
Reaches altitude 10° 09:38:27 10° 271° (W) 3,678 9.1 31.8°
Maximum altitude 09:43:56 18° 234° (SW) 3,093 8.9 32.8°
Drops below altitude 10° 09:49:24 10° 196° (SSW) 3,642 9.6 33.7°
Sets 09:53:43 0° 178° (S) 4,622 10.3 34.4°
